Tracking 31027 objects as of 19-Jul-2025
HD Live streaming from Space Station
objects crossing your sky now

CZ-4 DEB

Track CZ-4 DEB now!
10-day predictions


NORAD ID: 31131
Int'l Code: 2003-049D
Perigee: 687.1 km
Apogee: 860.3 km
Inclination: 98.9 °
Period: 100.2 minutes
Semi major axis: 7144 km
RCS: 0.0196 m2 (small)
Launch date: October 21, 2003
Source: People's Republic of China (PRC)
Launch site: Taiyaun Space Center, China (TSC)

Note: This is SATELLITE DEBRIS
Your satellite tracking list
RESURS O1 DEB
Track 1 satellite(s)




NASA's NSSDC Master Catalog

Two Line Element Set (TLE):
1 31131U 03049D   25199.52490794  .00001175  00000-0  37576-3 0  9996
2 31131  98.8710 217.7139 0121209 342.8055 169.8106 14.37552364951743
Source of the keplerian elements: AFSPC